Theta_e
351 350 352 353 352 350 349 350 349 348 345 344 341 339 341 342 331 330 334 332 341 341 340 340 338 339 337 337 338 338 338 335 335
353 352 352 351 352 352 350 350 349 349 348 345 343 341 340 332 330 330 332 332 341 342 340 339 337 336 337 335 334 335 334 334 337
351 351 351 351 352 352 352 351 350 349 349 348 346 344 344 334 330 329 330 338 342 342 340 339 337 336 338 336 333 334 333 333 333
349 349 350 351 351 351 352 352 351 350 349 349 349 348 347 329 330 331 329 341 342 343 341 341 338 337 336 334 333 331 331 331 333
344 346 347 348 349 350 350 351 351 351 352 350 350 349 347 333 329 331 330 342 343 343 341 341 339 336 337 334 332 331 331 331 336
340 340 342 344 346 348 350 351 350 350 350 351 349 348 341 336 331 330 337 342 344 343 341 341 340 338 338 335 333 331 331 332 334
327 330 333 337 340 341 343 347 349 349 343 343 346 342 339 335 333 330 338 342 345 344 342 341 341 339 338 335 334 332 332 331 332
320 322 323 329 334 334 335 336 339 339 340 342 341 341 340 338 336 335 340 343 345 345 343 341 340 339 339 336 334 333 332 332 332
313 314 317 320 325 326 331 333 333 336 339 339 340 339 339 338 337 336 341 343 345 346 345 342 340 340 338 337 335 334 333 332 332
309 310 312 315 318 320 323 327 330 331 333 336 336 337 337 336 337 336 340 343 344 346 345 343 341 340 339 338 335 334 332 332 332
306 307 308 309 312 314 317 319 324 329 330 330 334 336 336 336 336 335 334 341 343 345 346 344 342 341 339 338 336 334 333 332 331
303 302 303 306 309 311 313 314 319 324 328 329 332 333 336 336 335 334 334 336 340 343 346 345 343 342 340 339 336 335 333 332 331
300 300 300 304 306 308 309 311 313 315 319 322 326 331 333 334 335 334 334 335 337 339 342 345 344 342 341 339 337 335 333 333 332
300 300 300 302 302 303 305 306 309 311 312 317 322 326 328 331 333 334 334 334 335 336 339 341 342 343 341 340 337 336 334 333 332
300 300 300 301 300 299 301 302 306 308 311 317 318 321 325 328 329 331 333 333 334 334 335 337 337 341 342 340 339 337 335 334 332
300 299 299 300 298 298 300 301 302 303 308 311 313 318 323 325 328 331 331 331 332 332 332 334 335 337 340 340 339 339 337 335 333
300 299 299 299 297 297 297 299 298 302 307 308 309 307 314 322 326 328 330 330 331 331 331 331 332 333 334 334 336 336 337 336 333
300 300 299 299 297 297 297 298 298 301 304 305 308 308 308 314 317 319 323 328 328 328 329 330 330 330 330 331 332 332 334 334 332
300 300 299 299 298 296 297 300 299 300 298 301 308 310 311 310 309 313 314 315 323 326 327 328 328 328 328 329 328 330 331 331 330
299 299 299 298 298 297 297 297 297 299 299 299 301 303 308 312 312 309 309 311 310 310 312 326 328 327 327 326 326 329 329 329 328
Wind_Speed
8 9 10 10 10 9 9 9 9 9 8 7 6 4 4 6 5 4 6 4 7 6 6 6 7 7 6 6 6 6 7 8 7
11 11 11 12 10 11 11 12 12 12 11 10 9 7 5 4 5 5 5 6 9 8 7 6 6 6 5 5 4 5 6 6 6
14 14 14 14 13 13 14 14 14 14 14 13 12 10 7 4 6 6 5 9 11 11 9 8 6 7 7 6 2 5 4 4 5
16 16 15 15 16 16 16 17 17 17 16 15 15 13 9 5 4 6 4 12 12 12 11 11 8 7 6 5 4 2 2 3 5
16 18 17 15 17 17 18 19 19 18 17 17 16 14 12 6 5 5 5 14 14 13 13 12 11 9 8 6 5 3 1 2 8
14 18 19 18 17 18 19 18 19 19 19 18 17 15 4 5 4 4 12 16 16 14 14 14 13 11 9 7 5 4 3 2 6
12 14 19 18 17 16 18 18 20 17 9 7 16 5 5 5 5 5 18 19 19 16 15 15 14 13 11 9 7 5 5 2 5
6 6 7 7 12 6 8 9 7 9 9 8 7 8 7 5 6 9 17 21 21 19 17 17 16 14 13 11 9 8 6 3 4
6 5 7 6 6 8 7 5 7 10 10 10 9 9 7 6 5 9 17 22 24 22 20 19 18 16 15 13 11 10 9 5 5
5 6 5 6 7 7 8 8 6 9 10 8 9 8 10 9 5 6 18 21 24 24 22 21 19 18 17 15 13 11 10 8 6
5 6 6 7 7 8 7 8 8 6 8 9 8 8 8 10 11 7 7 21 24 25 24 23 22 21 19 17 15 13 12 10 8
5 4 5 5 6 9 8 8 7 7 6 9 7 8 9 9 10 9 8 9 22 25 25 24 24 23 21 19 17 15 14 11 9
4 4 4 5 5 6 7 7 8 7 7 7 7 7 8 10 10 9 8 8 8 18 26 25 26 25 23 20 19 17 15 14 11
4 4 4 5 4 4 6 7 6 8 8 8 8 7 7 8 8 11 10 11 10 9 23 25 25 24 24 22 20 19 17 15 14
5 4 5 5 4 4 4 6 7 7 8 9 10 8 8 8 7 10 9 11 12 10 12 14 14 23 24 23 23 21 19 17 14
6 4 5 5 4 5 6 5 7 8 6 7 7 6 9 9 7 7 8 9 11 10 10 8 9 12 23 22 24 22 20 18 14
6 6 6 6 4 6 5 4 4 4 5 5 7 5 2 6 6 6 7 9 7 9 10 11 10 8 9 12 19 18 19 17 13
7 9 8 8 5 5 6 5 5 7 8 7 6 5 4 2 0 2 3 6 7 7 7 8 9 8 6 8 11 13 14 15 12
9 10 9 9 6 6 7 6 5 4 8 5 6 8 9 5 3 1 2 2 1 5 6 9 8 9 8 11 11 14 12 10 11
10 9 9 9 7 7 7 7 6 5 6 6 5 8 8 10 7 3 1 0 2 2 3 5 9 10 9 8 11 15 13 11 10
Wind_Direction
256 256 260 242 221 220 228 227 231 223 223 228 225 194 149 157 152 164 184 185 149 159 122 126 118 110 102 99 78 67 64 53 45
268 264 260 264 245 238 226 230 232 235 229 231 229 212 188 167 178 191 204 195 171 169 155 158 149 138 127 112 93 89 74 63 55
297 290 279 273 264 248 241 236 234 234 234 233 234 226 189 176 183 194 203 207 178 175 166 169 161 155 150 116 123 104 84 77 52
332 306 292 280 271 264 253 244 238 235 235 235 235 232 196 189 198 198 206 216 189 182 176 176 175 169 165 146 122 98 101 89 93
349 347 344 308 290 277 269 260 248 240 235 233 233 234 224 190 211 211 203 214 202 193 181 181 181 185 177 167 171 163 97 83 85
4 1 358 344 338 323 278 266 260 252 240 234 233 235 209 186 209 205 214 214 211 203 194 187 184 189 189 183 178 175 173 108 99
10 4 354 349 349 339 339 313 270 254 246 237 238 226 210 188 206 214 217 215 217 208 201 196 191 189 188 189 188 192 183 184 115
358 352 345 341 344 340 335 333 314 276 246 225 223 220 215 208 201 217 219 214 218 212 203 201 198 195 191 190 189 204 176 192 155
348 343 335 336 337 337 337 324 317 305 284 250 224 211 221 221 205 209 218 219 220 214 206 202 197 198 200 195 189 196 192 185 174
334 347 340 340 340 334 332 330 324 317 305 288 257 219 220 228 227 216 215 219 221 220 210 203 199 197 199 200 195 197 200 195 191
354 342 338 338 339 328 321 320 319 310 309 295 277 255 232 224 224 223 219 219 216 219 217 205 201 199 199 200 200 197 200 202 202
337 329 329 320 325 319 322 322 319 318 311 296 277 265 253 235 219 210 218 224 220 213 216 208 204 202 200 196 203 198 201 201 208
329 320 310 308 317 320 318 315 318 312 309 299 282 272 257 250 220 204 207 220 215 215 214 210 206 204 200 196 202 203 202 202 208
305 305 298 301 307 310 310 320 305 309 306 298 291 272 259 245 236 227 206 218 224 209 214 207 209 204 204 199 202 204 205 208 212
291 291 292 299 299 298 300 306 311 292 290 299 291 272 253 244 223 224 213 210 212 214 211 204 209 208 205 201 202 205 204 211 214
257 264 268 273 274 272 288 300 304 309 295 303 286 265 255 241 234 221 212 207 206 208 206 201 202 206 204 204 204 205 206 210 212
263 255 261 260 259 281 274 267 297 282 283 292 295 284 291 227 220 216 218 208 207 208 213 197 199 202 200 203 209 209 208 207 202
267 270 265 256 232 257 264 256 259 295 300 291 297 281 251 333 1 269 250 208 197 214 206 208 205 192 189 186 199 208 203 206 200
267 265 262 259 245 235 252 252 237 257 282 295 260 284 294 267 249 220 264 323 210 207 194 202 199 190 188 181 170 167 164 185 200
266 264 265 260 250 239 234 253 249 240 255 259 279 286 275 291 253 243 181 135 66 57 6 235 201 196 182 172 166 154 161 170 180